Weather in Chekhovka

Russia / Bryansk Oblast     52°38′05″N   33°22′29″E
temp.,
°C
wind,
m/s
gust,
m/s
humid.,
%
clouds,
%
prec.,
mm/h
press.,
hPa
HPBL,
m
16 may, sun
sun1600:00+11ssw22925 0.0 101128
03:00+10ssw33935 0.0 101245
06:00+11s34945 0.1 101291
09:00+16ssw34815 0.1 1013457
12:00+19ssw346616 0.0 10131240
15:00+20ssw3363100 0.1 10121449
18:00+19n1173100 0.0 101222
21:00+15e1179100 0.0 101211
17 may, mon
mon1700:00+13e338823 0.0 101223
03:00+12ene3588100 0.0 101168
06:00+13ene31192100 0.1 1010248
09:00+17ene51089100 0.9 1008397
12:00+23e7116596 0.0 1005997
15:00+24ese8136336 0.0 10041497
18:00+22se7127266 0.0 10031134
21:00+19ese6148013 0.1 1003564
18 may, tue
tue1800:00+17se61393100 0.2 1003462
03:00+16sse51195100 0.2 1002479
06:00+16s4994100 0.1 1004531
09:00+17s4687100 0.3 1005600
12:00+20sse5670100 0.1 10051191
15:00+19se4779100 0.8 1005703
18:00+17se71184100 2.7 1004394
21:00+15ese3894100 2.9 1003217
19 may, wed
wed1900:00+14ese4895100 0.1 1003213
03:00+13se349659 1.2 100391
06:00+12se4109753 0.0 1003340
09:00+15sse5888100 0.1 1004692
12:00+16s7876100 0.5 10041185
15:00+17sse6867100 0.6 10041202
18:00+17se457580 0.5 1004933
21:00+12s339227 1.7 100455
20 may, thu
thu2000:00+10ssw339461 0.1 100447
03:00+11ssw3697100 0.3 1004204
06:00+10sw379798 0.1 1005298
09:00+10sw6995100 0.1 1007608
12:00+11wsw51091100 0.1 1009828
15:00+16wsw61070100 0.4 10101531
18:00+16sw367276 0.1 10111091
21:00+13ssw3784100 0.2 1013122